Regional Weather Roundup
Issued by NWS

Home | Current Version | Previous Version | Text Only | Print | Product List | Glossary Off
Versions: 1 2 3 4 5 6 7 8 9 10 11 12 13 14 15 16 17 18 19 20 21 22 23 24 25 26 27 28 29 30 31 32 33 34 35 36 37 38 39 40 41 42 43 44 45 46 47 48 49 50

000
ASUS43 KMKX 051011
RWRWI

WISCONSIN REGIONAL WEATHER ROUNDUP
NATIONAL WEATHER SERVICE MILWAUKEE/SULLIVAN WI
500 AM CDT SUN JUL 05 2015

NOTE: "FAIR" INDICATES FEW OR NO CLOUDS BELOW 12,000 FEET WITH NO
SIGNIFICANT WEATHER AND/OR OBSTRUCTIONS TO VISIBILITY.

WIZ001-002-006>008-014>016-023>028-051100-
NORTHWEST WISCONSIN

CITY           SKY/WX    TMP DP  RH WIND       PRES   REMARKS
SUPERIOR ARPT  FOG       51  51  99 CALM      29.94S VSB 1/2
ASHLAND        CLEAR     56  56 100 SW3       29.96R FOG
HAYWARD        CLEAR     66  61  84 SW5       29.99R
SIREN          CLEAR     65  59  81 S7        29.94F
CUMBERLAND     CLEAR     61  59  94 CALM      29.98R FOG
RICE LAKE      CLEAR     64  60  88 CALM      30.00R FOG
CHETEK         CLEAR     64  61  91 MISG      29.99R
LADYSMITH      CLEAR     64  63  94 SE5       30.02R FOG
EAU CLAIRE     CLEAR     65  60  84 CALM      29.98R
MENOMONIE      CLEAR     62  60  93 E3        29.98S
NEW RICHMOND   CLEAR     62  59  92 SE5       29.96F
OSCEOLA        CLEAR     63  63  99 SE3       29.96F
$$

WIZ003>005-009-010-017-018-051100-
NORTH CENTRAL WISCONSIN

CITY           SKY/WX    TMP DP  RH WIND       PRES   REMARKS
MANITOWISH WTR MOCLDY    60  60 100 CALM      30.02R FOG
ARBOR VITAE    PTCLDY    62  60  94 S3        30.03R FOG
WOODRUFF       PTCLDY    62  60  94 S3        30.03R FOG
RHINELANDER    CLEAR     64  62  93 SW7       30.04R FOG
EAGLE RIVER    FOG       59  59 100 CALM      30.03R VSB 3/4
LAND O LAKES   FOG       61  61 100 CALM      30.03R VSB 3/4
PHILLIPS       CLEAR     62  62  99 CALM      30.01R FOG
TOMAHAWK         N/A     59  58  97 CALM      30.04R FOG
MEDFORD        CLEAR     60  59  97 CALM      30.02S FOG
MERRILL          N/A     54  54 100 CALM      30.04R FOG
$$

WIZ029-030-035-036-043>047-051100-
CENTRAL WISCONSIN

CITY           SKY/WX    TMP DP  RH WIND       PRES   REMARKS
WAUSAU         CLEAR     64  63  96 SW3       30.01R FOG
MOSINEE        CLEAR     63  63 100 S5        30.04R FOG
MARSHFIELD     FOG       61  58  90 S5        30.02R VSB 1
STEVENS POINT  MOCLDY    60  59  95 CALM      30.03R
WAUPACA        CLEAR     61  61  98 CALM      30.03R FOG
WAUTOMA        CLEAR     57  57 100 CALM      30.04R FOG
WISC RAPIDS    MOCLDY    63  59  87 S5        30.03R
CAMP DOUGLAS   CLEAR     59  59 100 CALM      30.02R
$$

WIZ011>013-019>022-031-037>040-048>050-051100-
NORTHEAST WISCONSIN

CITY           SKY/WX    TMP DP  RH WIND       PRES   REMARKS
ANTIGO         CLEAR     60  60 100 SW5       30.04R FOG
SHAWANO        CLEAR     65  62  90 CALM      30.01R FOG
OCONTO         CLEAR     58  58 100 CALM      30.01R
STURGEON BAY   CLEAR     59  55  88 S7        30.04S
GREEN BAY      CLEAR     62  60  93 S3        30.02R FOG
MANITOWOC      CLEAR     58  57  97 MISG      30.04R FOG
APPLETON       CLEAR     63  59  88 S5        30.04R
CLINTONVILLE   CLEAR     61  61 100 CALM      30.01S FOG
OSHKOSH        CLEAR     62  59  90 S3        30.03R FOG
$$

WIZ032>034-041-042-053>061-051100-
SOUTHWEST WISCONSIN

CITY           SKY/WX    TMP DP  RH WIND       PRES   REMARKS
LA CROSSE      CLEAR     66  63  90 S8        30.00R
SPARTA         CLEAR     55  53  94 CALM      30.02R
VIROQUA        CLEAR     63  60  90 S6        30.03R
BOSCOBEL       FOG       59  58  96 CALM      30.03R VSB<1/4
PRAIRIE DU CHI CLEAR     61  58  91 CALM      30.02R
PLATTEVILLE    CLEAR     62  61  97 SE6       30.05R
$$

WIZ056-057-062-063-064-067-068-051100-
SOUTH CENTRAL WISCONSIN

CITY           SKY/WX    TMP DP  RH WIND       PRES   REMARKS
REEDSBURG      CLEAR     61  59  93 CALM      30.04R
BARABOO/DELLS  CLEAR     58  56  90 CALM      30.04R
LONE ROCK      PTCLDY    58  55  90 CALM      30.04R
MINERAL POINT  CLEAR     63  59  88 SE5       30.05R
MADISON        CLEAR     64  60  87 CALM      30.04R
MIDDLETON      CLEAR     60  59  96 CALM      30.05R
WATERTOWN      CLEAR     59  59 100 CALM      30.04S
MONROE         CLEAR     61  59  94 S7        30.05S
JANESVILLE     CLEAR     61  59  94 CALM      30.04S FOG
$$

WIZ051-052-058>065-066-070>072-051100-
SOUTHEAST WISCONSIN

CITY           SKY/WX    TMP DP  RH WIND       PRES   REMARKS
MILWAUKEE      PTCLDY    64  55  72 CALM      30.05S HAZE
WAUKESHA       CLEAR     59  55  88 CALM      30.06S FOG
MILWAUKEE/TIMM CLEAR     59  54  82 CALM      30.05S
RACINE         CLEAR     61  56  83 CALM      30.06F HAZE
BURLINGTON     FOG       54  54 100 CALM      30.05S VSB 3/4
KENOSHA        CLEAR     57  55  93 CALM      30.06S FOG
FOND DU LAC    CLEAR     63  61  93 S5        30.04R
SHEBOYGAN      CLEAR     60  58  92 CALM      30.04S
WEST BEND        N/A     59  57  94 CALM      30.04S FOG
JUNEAU         PTCLDY    61  60  95 CALM      30.06R FOG
$$

LSZ147-162-051100-
LAKE SUPERIOR

STATION/POSITION TIME  TEMP    WIND        PRES    WAVE
                       AIR SEA DIR/SP/G            HT/PER
                 (UTC) (F)     (DEG/KT/KT) (MB)    (FT/S)
W MID LAKE BUOY  0950   45 39  180/  6/  6 1013.8R   0
DEVILS ISLAND    1000   58     190/  6/  7 1014.0R
SAXON HARBOR     0940   64        CALM     1013.5R
$$

LMZ867-665-643>646-051100-
LAKE MICHIGAN

STATION/POSITION TIME  TEMP    WIND        PRES    WAVE
                       AIR SEA DIR/SP/G            HT/PER
                 (UTC) (F)     (DEG/KT/KT) (MB)    (FT/S)
CHAMBERS ISLAND  0900   65     150/  4/  8 1015.9F
S GREEN BAY BUOY 1000   68 69  180/ 10/ 14 1017.5R
N MID LAKE BUOY  0950   52 45  180/ 10/ 10 1016.7F   0
NORTHPORT PIER   0900   62     160/  7/ 11 1016.3F
SISTER BAY       0914   60     160/ 10/ 14   N/A
ALGOMA LAKESHORE 0911          200/  5/  7   N/A
KEWAUNEE LAKESHO 0900   61      CALM  /  2 1016.0F
SHEBOYGAN LAKESH 1000   62     210/  3/  3 1017.3R
PORT WASHINGTON  0900   63     190/  1/  2 1017.9
ATWATER BUOY     1000   63 59  180/  6/  6 1018.7R
MILWAUKEE LAKESH 0900   68     190/  4/  4   N/A
KENOSHA   LAKESH 1000   64     200/  2/  3 1017.6S
$$

TC  - TEMPERATURE IN CELSIUS
VSB - VISIBILITY IN STATUTE MILES
WCI - WIND CHILL INDEX
HX  - HEAT INDEX



USA.gov is the U.S. government's official web portal to all federal, state and local government web resources and services.